Location: Bassano
(45.7667°N, 11.7333°E)
Time: 20:08:27
(UTC+00:00)

BREEZE-M R/B - Pass Details

Date: 07 June 2020
Orbit: 311 x 4533 km, 49.7° (Epoch: 04 July)

Event Time Altitude Azimuth Distance (km) Brightness Sun altitude
Rises 00:28:20 0° 271° (W) 4,313 7.2 -19.3°
Reaches altitude 10° 00:32:14 10° 277° (W) 2,705 6.2 -19.1°
Maximum altitude 00:37:45 49° 352° (N) 739 3.8 -18.7°
Drops below altitude 10° 00:40:48 10° 70° (ENE) 1,496 5.6 -18.5°
Sets 00:42:26 0° 76° (ENE) 2,197 6.4 -18.4°
